Starlink 30715

operational
NORAD ID: 57941 Int'l Des: 2023-148 Owner: SPXS Country: US Constellation: starlink
LEOCIRCULAR

Starlink 30715について

説明を読み込み中...

リアルタイム位置

3D地球を読み込み中...

次回通過

高度履歴

Altitude vs Time

uPlot chart will show altitude changes over time

軌道要素

1 57941U 23148G 25354.11825169 -.00000241 00000-0 39860-5 0 9995
2 57941 53.1590 23.5888 0000962 84.2250 275.8860 15.30194610126389
Epoch: Dec 20, 2025 • Age: 12 hours

現在のステータス

高度 483.3 km
速度 7.62 km/s
衛星直下点 -26.35°S, 41.59°E
打ち上げ日 Sep 25, 2023
運用期間 2.2 years
タイプ internet

技術仕様

分類 Payload
質量 730.00 kg
乾燥質量 700.00 kg
総質量 730.00 kg
長さ 0.30 m
直径 4.10 m
スパン 29.00 m
形状 Box + pan
製造者 SPXS
バスタイプ Starlink V2M
フェーズステータス In Orbit
所有者/国 SPXS/US

大規模コンステレーション

Loading constellations...